Tracking 19832 objects as of 24-Aug-2019
HD Live streaming from Space Station
objects crossing your sky now

TITAN 3C TRANSTAGE R/B

Track TITAN 3C TRANSTAGE R/B now!


NORAD ID: 2770
Int'l Code: 1967-040F
Perigee: 5,225.2 km
Apogee: 114,482.8 km
Inclination: 43.2 °
Period: 2,826.8 minutes
Semi major axis: 66224 km
RCS: 3.1623 m2 (large)
Launch date: April 28, 1967
Source: United States (US)
Launch site: AIR FORCE EASTERN TEST RANGE (AFETR)

Note: This is a ROCKET BODY
aabbcc
Your satellite tracking list
Your tracking list is empty




NASA's NSSDC Master Catalog

Two Line Element Set (TLE):
1  2770U 67040F   19236.87504213 -.00001084 +00000-0 +00000-0 0  9998
2  2770 043.2386 344.7280 8248972 164.6243 359.9741 00.50941298010702
Source of the keplerian elements: AFSPC